Portada
METAR-TAF:

METAR-TAF

Aeroports :

Narrandera, Austràlia

latitud: 34-42-08S, longitud: 146-30-44E, altitud: 144 m

Observació

L'informe es va fer fa 41 minuts, a les 07:00 UTC
Vent 10 kt del Est, variant entre Est/Nord-Est i Sud-Est
Temperatura 28°C
Humitat 17%
Pressió 1016 hPa

METAR: YNAR 180700Z AUTO 08010KT 060V130 //// // ////// 28/01 Q1016

Hora: 18:41 (07:41 UTC)


TAF: manca

Observacions i pronòstics meteorològics de més de 4000 aeroports (METAR i TAF).

Les estacions disponibles són els punts grocs i vermells al mapa.

Posi el ratolí al punt desitjat per veure el nom de l'estació.

Feu clic per veure les observacions i els pronòstics meteorològics.

Per canviar el mapa: feu clic els botons verds amb una creu de color negre per apropar; al botó verd amb un guió per allunyar la imatge; o en les fletxes verdes per a mapes adjacents.


METAR-TAF: